SL-14 DEB, 45297

Orbit data source: Space-Track

SL-14 DEB, 45297 is space debris in LEO originally from a launch on Thu, 15 Aug 1991 UTC launched from the Plesetsk Missile And Space Complex (PKMTR). Debris objects in space refer to the collection of defunct objects orbiting the Earth. Examples of debris include non-operational satellites, rocket bodies, and fragments generated from explosions, collisions, or faulty payload assembly.

Loading next visibility...
Identifier
45297, 1991-056AK
Orbit
LEO
Country
Flag of CISCIS
Related business
Manufacturer
Unknown
Mission
Spacecraft
Bus & Motor
Unknown
Mass
Unknown
Launch date (UTC)
1991-08-15 (34 years ago)
Launch vehicle
Unknown
Launch site
Plesetsk Missile And Space Complex (PKMTR)
Object type
Payload
Rocket body
Debris
Shape & HBR
Unknown shape, 0.1 m
Radar Cross Section
Small (<0.1 m²)

Expand to show TLE details & history
Last TLE update: 15 hours ago

TLE from 15 hours ago
0 SL-14 DEB
1 45297U 91056AK  25352.86749181  .00002042  00000-0  49679-2 0  9994
2 45297  82.6008 301.0660 0083378  87.4327 273.6338 13.19822280278936
Epoch: 2025-12-18T20:49Z
TLE epoch observation values (Epoch: 2025-12-18T20:49:11.292Z)
Latitude
-0.00007°
Longitude
-98.94789°
Altitude
1,184.738 km
Speed
7.263 km/s
True Right ascension
20h 04m 15s
True Declination
0° 00' 00"
Sunlit
Object was in daylight at epoch
Visualization orbit readout
Latitude
Unknown
Longitude
Unknown
Altitude
Unknown
Speed
Unknown
Apparent Right ascension
Unknown
Apparent Declination
Unknown
Sunlit
N/A
Visualization observer readout
Local Sidereal Time
10:54:32
Azimuth
Unknown
Elevation
Unknown
Doppler factor
Unknown
Orbital elements
Apogee altitude
1,245.678 km
Perigee altitude
1,119.597 km
Semi-major axis
7,560.774 km
Eccentricity
0.00834
Inclination
82.6008°
RAAN
301.066°
Arg. of periapsis
87.4327°
True anomaly
272.67969°
Mean anomaly
273.6338°
Eccentric anomaly
273.1568°
Mean motion
3.30137 °/min
Orbital period
109.05 mins
BSTAR
0.0049679
Loading maneuver chart data...
Computing Atmospheric mass density...
Loading historical data...
Loading historical data...
Loading historical data...
Loading historical data...
Loading historical data...
Loading historical data...
Loading historical data...

Documentation

Showing up to 5 results
|